Saint Simons Island, GA

9:53 AM EDT on April 21, 2018 (GMT -0400)
McKinnon

Weather History for KSSI - August, 2014

Change the Weather History Date:

Wednesday, August 13, 2014

  Actual Average Record
Temperature  
Mean Temperature 83 °F 82 °F  
Max Temperature 88 °F 89 °F 96 °F (1963)
Min Temperature 77 °F 75 °F 66 °F (1967)
Degree Days  
Heating Degree Days 0 0  
Month to date heating degree days 0 0  
Since 1 June heating degree days 0 0  
Since 1 July heating degree days 0 0  
Cooling Degree Days 18 17  
Month to date cooling degree days 236 228  
Year to date cooling degree days 1685 1682  
Since 1 June cooling degree days 1242 1240  
Growing Degree Days 32 (Base 50)    
Moisture  
Dew Point 75 °F    
Average Humidity 80    
Maximum Humidity 94    
Minimum Humidity 65    
Precipitation  
Precipitation 0.03 in 0.20 in 3.17 in (1983)
Month to date precipitation 2.03 2.23  
Year to date precipitation 27.98 26.07  
Snow  
Snow 0.00 in - 0.00 in ()
Month to date snowfall 0.0  
Since 1 June snowfall 0.0  
Since 1 July snowfall 0.0  
Snow Depth 0.00 in    
Sea Level Pressure  
Sea Level Pressure 29.94 in    
Wind  
Wind Speed 9 mph (WSW)    
Max Wind Speed 15 mph    
Max Gust Speed 19 mph    
Visibility 10 miles    
Events Rain , Thunderstorm    
T = Trace of Precipitation, MM = Missing Value Source: NWS Daily Summary

Daily Weather History Graph

Daily Weather History Graph

Search for Another Location

Airport or City:

Astronomy

Aug. 13, 2014 Rise Set
Actual Time 6:50 AM EDT 8:10 PM EDT
Civil Twilight 6:24 AM EDT 8:35 PM EDT
Nautical Twilight 5:53 AM EDT 9:06 PM EDT
Astronomical Twilight 5:22 AM EDT 9:37 PM EDT
Moon 10:13 PM EDT (8/13) 10:00 AM EDT (8/13)
Length of Visible Light 14h 11m
Length of Day
13h 20m
Waning Gibbous, 88% of the Moon is Illuminated
Aug 13
Waning Gibbous
Aug 17
Last Quarter
Aug 25
New
Sep 2
First Quarter
Sep 8
Full

Hourly Weather History & Observations

Time (EDT) Temp. Heat Index Dew Point Humidity Pressure Visibility Wind Dir Wind Speed Gust Speed Precip Events Conditions
12:53 AM 78.1 °F - 75.0 °F 90% 29.93 in 10.0 mi SW 9.2 mph - N/A   Clear
1:53 AM 78.1 °F - 73.0 °F 84% 29.93 in 10.0 mi WSW 10.4 mph - N/A   Clear
2:53 AM 77.0 °F - 73.9 °F 90% 29.92 in 10.0 mi WSW 11.5 mph - N/A   Clear
3:53 AM 77.0 °F - 75.0 °F 94% 29.92 in 10.0 mi WSW 11.5 mph - N/A   Clear
4:18 AM 77.0 °F - 75.0 °F 94% 29.92 in 10.0 mi WSW 9.2 mph - N/A   Partly Cloudy
4:53 AM 77.0 °F - 75.0 °F 94% 29.92 in 10.0 mi WSW 9.2 mph - N/A   Partly Cloudy
5:53 AM 77.0 °F - 75.0 °F 94% 29.92 in 10.0 mi West 8.1 mph - N/A   Clear
6:53 AM 77.0 °F - 75.0 °F 94% 29.94 in 10.0 mi WSW 8.1 mph - N/A   Clear
9:53 AM 82.9 °F 90.8 °F 75.9 °F 79% 29.96 in 10.0 mi West 9.2 mph - N/A   Clear
10:53 AM 84.2 °F 92.3 °F 75.2 °F 74% 29.98 in 10.0 mi WSW 8.1 mph - N/A   Partly Cloudy
11:53 AM 86.0 °F 93.0 °F 73.0 °F 65% 29.97 in 10.0 mi West 6.9 mph - N/A   Partly Cloudy
12:53 PM 84.9 °F 93.3 °F 75.0 °F 72% 29.96 in 8.0 mi SW 10.4 mph - N/A   Mostly Cloudy
1:53 PM 82.0 °F 89.4 °F 75.9 °F 82% 29.96 in 10.0 mi SSW 6.9 mph - 0.02 in   Clear
2:20 PM 82.0 °F 88.6 °F 75.0 °F 79% 29.96 in 10.0 mi SW 11.5 mph - N/A Thunderstorm Clear
2:35 PM 81.0 °F 87.9 °F 77.0 °F 88% 29.95 in 10.0 mi SW 10.4 mph - 0.00 in Rain Light Rain
2:53 PM 79.0 °F - 73.0 °F 82% 29.94 in 10.0 mi SW 10.4 mph - 0.00 in   Mostly Cloudy
3:53 PM 82.9 °F 90.2 °F 75.0 °F 77% 29.93 in 10.0 mi SW 11.5 mph - N/A   Clear
4:53 PM 84.9 °F 94.1 °F 75.9 °F 74% 29.93 in 10.0 mi SW 9.2 mph - N/A   Clear
5:53 PM 82.0 °F 86.7 °F 72.0 °F 71% 29.93 in 10.0 mi West 3.5 mph - N/A   Partly Cloudy
6:53 PM 80.1 °F 85.4 °F 75.9 °F 87% 29.94 in 9.0 mi WSW 6.9 mph - 0.01 in Rain Light Rain
7:53 PM 80.1 °F 84.5 °F 73.9 °F 81% 29.94 in 10.0 mi SW 9.2 mph - 0.00 in   Partly Cloudy
8:53 PM 79.0 °F - 73.9 °F 84% 29.94 in 10.0 mi WSW 9.2 mph - N/A   Clear
9:53 PM 79.0 °F - 73.9 °F 84% 29.95 in 10.0 mi SW 9.2 mph - N/A   Partly Cloudy
10:53 PM 79.0 °F - 75.0 °F 88% 29.97 in 10.0 mi SW 8.1 mph - N/A   Scattered Clouds